SONATE-2
1 59112U 24043Q   26238.37925350  .00040570  00000-0  42865-3 0  9990
2 59112  97.5592  33.4033 0004793 300.9553  59.1234 15.64084369138845
GRBBeta
1 60237U 24128C   26238.82573316  .00003630  00000-0  25250-3 0  9990
2 60237  61.9919 328.3479 0030566 150.0761 210.2087 15.07079372116910
Curium One
1 60242U 24128H   26238.62287027  .00007020  00000-0  39906-3 0  9995
2 60242  61.9801 316.1303 0029611 145.6978 214.6038 15.13423436117114
ROBUSTA-3A
1 60243U 24128J   26238.49620435  .00006489  00000-0  37859-3 0  9998
2 60243  61.9879 319.4481 0031555 142.7529 217.5764 15.12537748117055
CatSat
1 60246U 24125J   26237.08672416  .00099802  00000-0  89563-3 0  9998
2 60246  97.2010  90.9174 0014495 281.2037  78.7595 15.67838486118158
HYPERVIEW-1G (RS66S)
1 61772U 24199AP  26230.11543498  .07890463  24672-5  93922-3 0  9997
2 61772  97.2456 114.2453 0006603 245.8477 114.2131 16.36574258144515
AO-123
1 61781U 24199AY  26238.84234019  .00007881  00000-0  22203-3 0  9996
2 61781  97.2891 106.8823 0015126  59.2510 301.0222 15.36596819144772
LASARsat
1 62391U 24247Q   26238.87177580  .00036295  00000-0  62019-3 0  9990
2 62391  44.9712 223.7142 0007549  66.9459 293.2228 15.50696772 94273
CroCube
1 62394U 24247T   26237.03134957  .00043022  00000-0  67126-3 0  9991
2 62394  44.9685 230.1372 0007916  62.8834 297.2865 15.53158446 94031
JINJUSat 1B
1 63210U 25052A   26238.50553840  .00015031  00000-0  43727-3 0  9993
2 63210  97.3903 135.4229 0003433 151.5624 208.5808 15.35526815 80884
NUSHSAT 1
1 63211U 25052B   26238.22867477  .00018297  00000-0  48256-3 0  9996
2 63211  97.3878 135.9792 0003006 149.0385 211.1038 15.38538493 80904
TEVEL2-4
1 63213U 25052D   26238.68020174  .00017902  00000-0  49764-3 0  9990
2 63213  97.3799 135.2690 0002224 156.1713 203.9634 15.36913761 80930
TEVEL2-5
1 63214U 25052E   26238.25367084  .00016369  00000-0  45866-3 0  9993
2 63214  97.3800 134.7670 0001994 157.2511 202.8822 15.36686092 80860
TEVEL2-6
1 63215U 25052F   26238.65831084  .00017602  00000-0  49325-3 0  9999
2 63215  97.3805 135.1578 0001997 155.7050 204.4289 15.36667063 80921
TEVEL2-1
1 63217U 25052H   26238.64859943  .00016522  00000-0  47248-3 0  9996
2 63217  97.3773 134.6843 0001606 176.4279 183.6977 15.36047689 80902
TEVEL2-3
1 63218U 25052J   26238.18431027  .00015495  00000-0  44251-3 0  9994
2 63218  97.3778 134.2510 0001317 165.2048 194.9235 15.36103846 80836
TEVEL2-2
1 63219U 25052K   26238.64838698  .00016502  00000-0  47170-3 0  9994
2 63219  97.3779 134.6873 0001548 179.0772 181.0475 15.36060738 80900
TEVEL2-9
1 63237U 25052AD  26238.19894911  .00014112  00000-0  43259-3 0  9993
2 63237  97.3842 133.4511 0003891 242.6767 117.4080 15.33885220 80757
TEVEL2-7
1 63238U 25052AE  26238.25449735  .00013329  00000-0  41326-3 0  9993
2 63238  97.3838 133.3907 0003814 241.9460 118.1397 15.33536903 80758
TEVEL2-8
1 63239U 25052AF  26237.67610641  .00014962  00000-0  46384-3 0  9998
2 63239  97.3842 132.7877 0003769 248.7020 111.3820 15.33511361 80666
SPIRONE
1 66657U 25274H   26238.32702971  .00001580  00000-0  15420-3 0  9991
2 66657  97.7470 166.6237 0012994 135.1996 225.0276 14.93784820 40695
K-HERO
1 66660U 25274L   26238.31255234  .00001408  00000-0  13654-3 0  9995
2 66660  97.7478 166.8214 0014752 139.7184 220.5132 14.94183244 40704
SNUGLITE-III DURI
1 66661U 25274M   26238.36607623  .00001547  00000-0  14946-3 0  9993
2 66661  97.7475 166.8950 0015380 140.7421 219.4918 14.94196849 40718
SAKHACUBE-CHOLBON
1 67290U 25313AU  26238.15105108  .00008734  00000-0  34170-3 0  9990
2 67290  97.3893 312.3483 0010674 107.6613 252.5792 15.26016097 36649
RS95S (QMR-KWT-2)
1 67291U 25313AV  26238.19402947  .00011312  00000-0  41674-3 0  9999
2 67291  97.3891 312.7391 0010223 105.8494 254.3873 15.27941043 36679
Ten-Koh2
1 68261U 25241B   26238.69276016  .00007350  00000-0  30641-3 0  9997
2 68261  51.6655 343.8634 0006880  15.8650 344.2543 15.24681357 25667
JACK-002
1 68417U 26067B   26238.41356087  .00005989  00000-0  27994-3 0  9997
2 68417  97.4626 196.1980 0003563  60.7597 299.3994 15.20152236 22610
DISCO 2
1 68431U 26067R   26238.64273360  .00007945  00000-0  37176-3 0  9997
2 68431  97.4659 196.4203 0004171  98.6348 261.5360 15.20010891 22644
HADES-SA (SpinnyONE)
1 68446U 26067AG  26238.85004076  .00017535  00000-0  78657-3 0  9997
2 68446  97.4450 196.2218 0006532 166.7012 193.4397 15.21246965 22660
PARUS-6U1
1 68456U 26067AS  26238.39808187  .00004931  00000-0  24464-3 0  9995
2 68456  97.4612 195.7377 0005799 160.6068 199.5387 15.18158748 22583
SAL-E
1 68458U 26067AU  26238.83771288  .00007932  00000-0  38585-3 0  9990
2 68458  97.4536 196.0764 0005731 167.6170 192.5206 15.18653187 22659
FSI-SAT 2
1 68792U 26088A   26238.39905520  .00003646  00000-0  24516-3 0  9990
2 68792  97.5161  25.9581 0013106 222.3098 137.7120 15.07308506 18869
OrigamiSat 2
1 68795U 26088D   26238.69582610  .00012582  00000-0  77278-3 0  9999
2 68795  97.5150  26.6346 0014652 192.3997 167.6874 15.10134484 18930
ARICA 2
1 68796U 26088E   26238.86405395  .00003654  00000-0  23515-3 0  9998
2 68796  97.5154  26.7020 0015165 190.3283 169.7637 15.08909482 18958
WASEDA-SAT-ZERO-II
1 68797U 26088F   26238.38082036  .00005320  00000-0  33673-3 0  9997
2 68797  97.5141  26.2679 0015018 192.3063 167.7801 15.09315522 18885
MANGARO-II-Piscus
1 68798U 26088G   26238.83475963  .00004261  00000-0  27095-3 0  9997
2 68798  97.5158  26.7535 0018549 195.1136 164.9542 15.09209193 18959
CO-128
1 69912U 26156AV  26238.47872081  .00001502  00000-0  15788-3 0  9995
2 69912  97.7501 138.0422 0002504  12.0432 348.0846 14.90899648  7470
MARINA
1 69920U 26156BD  26238.30531072  .00001851  00000-0  18764-3 0  9992
2 69920  97.7469 137.9427 0007496   1.8708 358.2537 14.92097814  7457
IO-86
1 40931U          26199.45381863  .00000000  00000-0  77536-4 0    07
2 40931   6.0006 322.6653 0012733 338.8432 273.6875 14.79294310    03
LILIUM-4                
1 71922C 26067AC  26089.50133053 -.00014632  00000+0 -74472-3 0    04
2 71922  97.4497  49.1617 0004341   5.9603 355.7042 15.16896692    16
